Year,Month,Day,Hour,Minute,Value (Times are PST for windgust in km/hr)
2017,04,06,00,00,9.60
2017,04,06,00,01,6.40
2017,04,06,00,02,6.40
2017,04,06,00,03,6.40
2017,04,06,00,04,6.40
2017,04,06,00,05,4.80
2017,04,06,00,06,8.10
2017,04,06,00,07,6.40
2017,04,06,00,08,6.40
2017,04,06,00,09,8.10
2017,04,06,00,10,8.10
2017,04,06,00,11,9.60
2017,04,06,00,12,9.60
2017,04,06,00,13,6.40
2017,04,06,00,14,6.40
2017,04,06,00,15,8.10
2017,04,06,00,16,6.40
2017,04,06,00,17,6.40
2017,04,06,00,18,8.10
2017,04,06,00,19,6.40
2017,04,06,00,20,6.40
2017,04,06,00,21,4.80
2017,04,06,00,22,4.80
2017,04,06,00,23,4.80
2017,04,06,00,24,6.40
2017,04,06,00,25,8.10
2017,04,06,00,26,6.40
2017,04,06,00,27,4.80
2017,04,06,00,28,4.80
2017,04,06,00,29,6.40
2017,04,06,00,30,6.40
2017,04,06,00,31,6.40
2017,04,06,00,32,6.40
2017,04,06,00,33,8.10
2017,04,06,00,34,6.40
2017,04,06,00,35,6.40
2017,04,06,00,36,8.10
2017,04,06,00,37,8.10
2017,04,06,00,38,6.40
2017,04,06,00,39,9.60
2017,04,06,00,40,8.10
2017,04,06,00,41,8.10
2017,04,06,00,42,6.40
2017,04,06,00,43,6.40
2017,04,06,00,44,8.10
2017,04,06,00,45,6.40
2017,04,06,00,46,6.40
2017,04,06,00,47,9.60
2017,04,06,00,48,8.10
2017,04,06,00,49,6.40
2017,04,06,00,50,4.80
2017,04,06,00,51,4.80
2017,04,06,00,52,4.80
2017,04,06,00,53,4.80
2017,04,06,00,54,6.40
2017,04,06,00,55,4.80
2017,04,06,00,56,6.40
2017,04,06,00,57,4.80
2017,04,06,00,58,4.80
2017,04,06,00,59,8.10
2017,04,06,01,00,6.40
2017,04,06,01,01,4.80
2017,04,06,01,02,6.40
2017,04,06,01,03,8.10
2017,04,06,01,04,6.40
2017,04,06,01,05,6.40
2017,04,06,01,06,6.40
2017,04,06,01,07,6.40
2017,04,06,01,08,6.40
2017,04,06,01,09,6.40
2017,04,06,01,10,6.40
2017,04,06,01,11,6.40
2017,04,06,01,12,6.40
2017,04,06,01,13,6.40
2017,04,06,01,14,4.80
2017,04,06,01,15,8.10
2017,04,06,01,16,6.40
2017,04,06,01,17,8.10
2017,04,06,01,18,8.10
2017,04,06,01,19,9.60
2017,04,06,01,20,6.40
2017,04,06,01,21,6.40
2017,04,06,01,22,8.10
2017,04,06,01,23,9.60
2017,04,06,01,24,9.60
2017,04,06,01,25,6.40
2017,04,06,01,26,6.40
2017,04,06,01,27,8.10
2017,04,06,01,28,6.40
2017,04,06,01,29,9.60
2017,04,06,01,30,8.10
2017,04,06,01,31,11.30
2017,04,06,01,32,9.60
2017,04,06,01,33,6.40
2017,04,06,01,34,8.10
2017,04,06,01,35,9.60
2017,04,06,01,36,11.30
2017,04,06,01,37,11.30
2017,04,06,01,38,9.60
2017,04,06,01,39,9.60
2017,04,06,01,40,11.30
2017,04,06,01,41,9.60
2017,04,06,01,42,9.60
2017,04,06,01,43,9.60
2017,04,06,01,44,11.30
2017,04,06,01,45,9.60
2017,04,06,01,46,12.90
2017,04,06,01,47,9.60
2017,04,06,01,48,9.60
2017,04,06,01,49,9.60
2017,04,06,01,50,6.40
2017,04,06,01,51,9.60
2017,04,06,01,52,11.30
2017,04,06,01,53,8.10
2017,04,06,01,54,8.10
2017,04,06,01,55,11.30
2017,04,06,01,56,12.90
2017,04,06,01,57,8.10
2017,04,06,01,58,11.30
2017,04,06,01,59,11.30
2017,04,06,02,00,9.60
2017,04,06,02,01,8.10
2017,04,06,02,02,8.10
2017,04,06,02,03,9.60
2017,04,06,02,04,12.90
2017,04,06,02,05,11.30
2017,04,06,02,06,16.10
2017,04,06,02,07,16.10
2017,04,06,02,08,16.10
2017,04,06,02,09,11.30
2017,04,06,02,10,11.30
2017,04,06,02,11,9.60
2017,04,06,02,12,11.30
2017,04,06,02,13,16.10
2017,04,06,02,14,17.70
2017,04,06,02,15,16.10
2017,04,06,02,16,16.10
2017,04,06,02,17,20.90
2017,04,06,02,18,16.10
2017,04,06,02,19,19.30
2017,04,06,02,20,19.30
2017,04,06,02,21,16.10
2017,04,06,02,22,17.70
2017,04,06,02,23,19.30
2017,04,06,02,24,19.30
2017,04,06,02,25,19.30
2017,04,06,02,26,19.30
2017,04,06,02,27,12.90
2017,04,06,02,28,17.70
2017,04,06,02,29,20.90
2017,04,06,02,30,20.90
2017,04,06,02,31,12.90
2017,04,06,02,32,14.50
2017,04,06,02,33,17.70
2017,04,06,02,34,17.70
2017,04,06,02,35,12.90
2017,04,06,02,36,14.50
2017,04,06,02,37,19.30
2017,04,06,02,38,16.10
2017,04,06,02,39,17.70
2017,04,06,02,40,16.10
2017,04,06,02,41,17.70
2017,04,06,02,42,16.10
2017,04,06,02,43,16.10
2017,04,06,02,44,16.10
2017,04,06,02,45,19.30
2017,04,06,02,46,17.70
2017,04,06,02,47,16.10
2017,04,06,02,48,22.50
2017,04,06,02,49,22.50
2017,04,06,02,50,14.50
2017,04,06,02,51,12.90
2017,04,06,02,52,12.90
2017,04,06,02,53,16.10
2017,04,06,02,54,16.10
2017,04,06,02,55,17.70
2017,04,06,02,56,11.30
2017,04,06,02,57,14.50
2017,04,06,02,58,16.10
2017,04,06,02,59,19.30
2017,04,06,03,00,17.70
2017,04,06,03,01,16.10
2017,04,06,03,02,17.70
2017,04,06,03,03,12.90
2017,04,06,03,04,11.30
2017,04,06,03,05,14.50
2017,04,06,03,06,16.10
2017,04,06,03,07,14.50
2017,04,06,03,08,11.30
2017,04,06,03,09,17.70
2017,04,06,03,10,16.10
2017,04,06,03,11,17.70
2017,04,06,03,12,12.90
2017,04,06,03,13,11.30
2017,04,06,03,14,11.30
2017,04,06,03,15,11.30
2017,04,06,03,16,11.30
2017,04,06,03,17,8.10
2017,04,06,03,18,14.50
2017,04,06,03,19,12.90
2017,04,06,03,20,19.30
2017,04,06,03,21,16.10
2017,04,06,03,22,14.50
2017,04,06,03,23,11.30
2017,04,06,03,24,17.70
2017,04,06,03,25,17.70
2017,04,06,03,26,16.10
2017,04,06,03,27,16.10
2017,04,06,03,28,16.10
2017,04,06,03,29,17.70
2017,04,06,03,30,14.50
2017,04,06,03,31,19.30
2017,04,06,03,32,11.30
2017,04,06,03,33,11.30
2017,04,06,03,34,9.60
2017,04,06,03,35,14.50
2017,04,06,03,36,16.10
2017,04,06,03,37,16.10
2017,04,06,03,38,16.10
2017,04,06,03,39,16.10
2017,04,06,03,40,16.10
2017,04,06,03,41,14.50
2017,04,06,03,42,14.50
2017,04,06,03,43,16.10
2017,04,06,03,44,16.10
2017,04,06,03,45,12.90
2017,04,06,03,46,17.70
2017,04,06,03,47,17.70
2017,04,06,03,48,17.70
2017,04,06,03,49,17.70
2017,04,06,03,50,17.70
2017,04,06,03,51,16.10
2017,04,06,03,52,16.10
2017,04,06,03,53,17.70
2017,04,06,03,54,11.30
2017,04,06,03,55,17.70
2017,04,06,03,56,20.90
2017,04,06,03,57,20.90
2017,04,06,03,58,20.90
2017,04,06,03,59,17.70
2017,04,06,04,00,17.70
2017,04,06,04,01,19.30
2017,04,06,04,02,22.50
2017,04,06,04,03,16.10
2017,04,06,04,04,20.90
2017,04,06,04,05,19.30
2017,04,06,04,06,19.30
2017,04,06,04,07,16.10
2017,04,06,04,08,16.10
2017,04,06,04,09,16.10
2017,04,06,04,10,16.10
2017,04,06,04,11,17.70
2017,04,06,04,12,14.50
2017,04,06,04,13,14.50
2017,04,06,04,14,14.50
2017,04,06,04,15,8.10
2017,04,06,04,16,11.30
2017,04,06,04,17,9.60
2017,04,06,04,18,9.60
2017,04,06,04,19,11.30
2017,04,06,04,20,11.30
2017,04,06,04,21,11.30
2017,04,06,04,22,12.90
2017,04,06,04,23,12.90
2017,04,06,04,24,14.50
2017,04,06,04,25,16.10
2017,04,06,04,26,17.70
2017,04,06,04,27,17.70
2017,04,06,04,28,17.70
2017,04,06,04,29,16.10
2017,04,06,04,30,24.20
2017,04,06,04,31,22.50
2017,04,06,04,32,19.30
2017,04,06,04,33,19.30
2017,04,06,04,34,19.30
2017,04,06,04,35,24.20
2017,04,06,04,36,20.90
2017,04,06,04,37,19.30
2017,04,06,04,38,20.90
2017,04,06,04,39,20.90
2017,04,06,04,40,20.90
2017,04,06,04,41,19.30
2017,04,06,04,42,17.70
2017,04,06,04,43,20.90
2017,04,06,04,44,19.30
2017,04,06,04,45,24.20
2017,04,06,04,46,17.70
2017,04,06,04,47,19.30
2017,04,06,04,48,24.20
2017,04,06,04,49,16.10
2017,04,06,04,50,17.70
2017,04,06,04,51,17.70
2017,04,06,04,52,16.10
2017,04,06,04,53,16.10
2017,04,06,04,54,11.30
2017,04,06,04,55,11.30
2017,04,06,04,56,14.50
2017,04,06,04,57,14.50
2017,04,06,04,58,14.50
2017,04,06,04,59,14.50
2017,04,06,05,00,14.50
2017,04,06,05,01,17.70
2017,04,06,05,02,16.10
2017,04,06,05,03,14.50
2017,04,06,05,04,12.90
2017,04,06,05,05,20.90
2017,04,06,05,06,20.90
2017,04,06,05,07,16.10
2017,04,06,05,08,14.50
2017,04,06,05,09,14.50
2017,04,06,05,10,17.70
2017,04,06,05,11,16.10
2017,04,06,05,12,16.10
2017,04,06,05,13,9.60
2017,04,06,05,14,9.60
2017,04,06,05,15,11.30
2017,04,06,05,16,20.90
2017,04,06,05,17,20.90
2017,04,06,05,18,11.30
2017,04,06,05,19,19.30
2017,04,06,05,20,16.10
2017,04,06,05,21,12.90
2017,04,06,05,22,12.90
2017,04,06,05,23,11.30
2017,04,06,05,24,17.70
2017,04,06,05,25,11.30
2017,04,06,05,26,11.30
2017,04,06,05,27,14.50
2017,04,06,05,28,11.30
2017,04,06,05,29,17.70
2017,04,06,05,30,17.70
2017,04,06,05,31,11.30
2017,04,06,05,32,16.10
2017,04,06,05,33,16.10
2017,04,06,05,34,16.10
2017,04,06,05,35,14.50
2017,04,06,05,36,9.60
2017,04,06,05,37,16.10
2017,04,06,05,38,11.30
2017,04,06,05,39,11.30
2017,04,06,05,40,11.30
2017,04,06,05,41,14.50
2017,04,06,05,42,14.50
2017,04,06,05,43,14.50
2017,04,06,05,44,12.90
2017,04,06,05,45,11.30
2017,04,06,05,46,11.30
2017,04,06,05,47,12.90
2017,04,06,05,48,9.60
2017,04,06,05,49,8.10
2017,04,06,05,50,9.60
2017,04,06,05,51,8.10
2017,04,06,05,52,9.60
2017,04,06,05,53,8.10
2017,04,06,05,54,8.10
2017,04,06,05,55,8.10
2017,04,06,05,56,8.10
2017,04,06,05,57,9.60
2017,04,06,05,58,9.60
2017,04,06,05,59,8.10
2017,04,06,06,00,9.60
2017,04,06,06,01,6.40
2017,04,06,06,02,8.10
2017,04,06,06,03,8.10
2017,04,06,06,04,11.30
2017,04,06,06,05,11.30
2017,04,06,06,06,11.30
2017,04,06,06,07,14.50
2017,04,06,06,08,9.60
2017,04,06,06,09,14.50
2017,04,06,06,10,12.90
2017,04,06,06,11,14.50
2017,04,06,06,12,16.10
2017,04,06,06,13,16.10
2017,04,06,06,14,12.90
2017,04,06,06,15,11.30
2017,04,06,06,16,11.30
2017,04,06,06,17,9.60
2017,04,06,06,18,11.30
2017,04,06,06,19,9.60
2017,04,06,06,20,9.60
2017,04,06,06,21,9.60
2017,04,06,06,22,9.60
2017,04,06,06,23,8.10
2017,04,06,06,24,8.10
2017,04,06,06,25,8.10
2017,04,06,06,26,9.60
2017,04,06,06,27,8.10
2017,04,06,06,28,6.40
2017,04,06,06,29,4.80
2017,04,06,06,30,6.40
2017,04,06,06,31,11.30
2017,04,06,06,32,6.40
2017,04,06,06,33,8.10
2017,04,06,06,34,6.40
2017,04,06,06,35,8.10
2017,04,06,06,36,8.10
2017,04,06,06,37,9.60
2017,04,06,06,38,14.50
2017,04,06,06,39,16.10
2017,04,06,06,40,11.30
2017,04,06,06,41,17.70
2017,04,06,06,42,11.30
2017,04,06,06,43,17.70
2017,04,06,06,44,19.30
2017,04,06,06,45,27.40
2017,04,06,06,46,19.30
2017,04,06,06,47,16.10
2017,04,06,06,48,17.70
2017,04,06,06,49,16.10
2017,04,06,06,50,16.10
2017,04,06,06,51,20.90
2017,04,06,06,52,16.10
2017,04,06,06,53,16.10
2017,04,06,06,54,17.70
2017,04,06,06,55,17.70
2017,04,06,06,56,11.30
2017,04,06,06,57,20.90
2017,04,06,06,58,16.10
2017,04,06,06,59,17.70
2017,04,06,07,00,17.70
2017,04,06,07,01,19.30
2017,04,06,07,02,20.90
2017,04,06,07,03,22.50
2017,04,06,07,04,17.70
2017,04,06,07,05,22.50
2017,04,06,07,06,19.30
2017,04,06,07,07,22.50
2017,04,06,07,08,20.90
2017,04,06,07,09,25.70
2017,04,06,07,10,20.90
2017,04,06,07,11,19.30
2017,04,06,07,12,24.20
2017,04,06,07,13,22.50
2017,04,06,07,14,22.50
2017,04,06,07,15,24.20
2017,04,06,07,16,17.70
2017,04,06,07,17,16.10
2017,04,06,07,18,16.10
2017,04,06,07,19,20.90
2017,04,06,07,20,14.50
2017,04,06,07,21,16.10
2017,04,06,07,22,14.50
2017,04,06,07,23,22.50
2017,04,06,07,24,17.70
2017,04,06,07,25,22.50
2017,04,06,07,26,19.30
2017,04,06,07,27,20.90
2017,04,06,07,28,24.20
2017,04,06,07,29,22.50
2017,04,06,07,30,19.30
2017,04,06,07,31,17.70
2017,04,06,07,32,22.50
2017,04,06,07,33,22.50
2017,04,06,07,34,20.90
2017,04,06,07,35,20.90
2017,04,06,07,36,22.50
2017,04,06,07,37,27.40
2017,04,06,07,38,22.50
2017,04,06,07,39,20.90
2017,04,06,07,40,22.50
2017,04,06,07,41,29.00
2017,04,06,07,42,25.70
2017,04,06,07,43,24.20
2017,04,06,07,44,24.20
2017,04,06,07,45,17.70
2017,04,06,07,46,17.70
2017,04,06,07,47,17.70
2017,04,06,07,48,16.10
2017,04,06,07,49,14.50
2017,04,06,07,50,16.10
2017,04,06,07,51,16.10
2017,04,06,07,52,16.10
2017,04,06,07,53,16.10
2017,04,06,07,54,16.10
2017,04,06,07,55,14.50
2017,04,06,07,56,14.50
2017,04,06,07,57,16.10
2017,04,06,07,58,11.30
2017,04,06,07,59,14.50
2017,04,06,08,00,11.30
2017,04,06,08,01,11.30
2017,04,06,08,02,16.10
2017,04,06,08,03,11.30
2017,04,06,08,04,14.50
2017,04,06,08,05,11.30
2017,04,06,08,06,8.10
2017,04,06,08,07,12.90
2017,04,06,08,08,11.30
2017,04,06,08,09,14.50
2017,04,06,08,10,9.60
2017,04,06,08,11,8.10
2017,04,06,08,12,14.50
2017,04,06,08,13,11.30
2017,04,06,08,14,12.90
2017,04,06,08,15,9.60
2017,04,06,08,16,8.10
2017,04,06,08,17,8.10
2017,04,06,08,18,8.10
2017,04,06,08,19,8.10
2017,04,06,08,20,9.60
2017,04,06,08,21,9.60
2017,04,06,08,22,9.60
2017,04,06,08,23,8.10
2017,04,06,08,24,8.10
2017,04,06,08,25,8.10
2017,04,06,08,26,9.60
2017,04,06,08,27,9.60
2017,04,06,08,28,9.60
2017,04,06,08,29,8.10
2017,04,06,08,30,8.10
2017,04,06,08,31,4.80
2017,04,06,08,32,8.10
2017,04,06,08,33,6.40
2017,04,06,08,34,9.60
2017,04,06,08,35,11.30
2017,04,06,08,36,14.50
2017,04,06,08,37,9.60
2017,04,06,08,38,9.60
2017,04,06,08,39,11.30
2017,04,06,08,40,8.10
2017,04,06,08,41,9.60
2017,04,06,08,42,11.30
2017,04,06,08,43,17.70
2017,04,06,08,44,19.30
2017,04,06,08,45,16.10
2017,04,06,08,46,12.90
2017,04,06,08,47,14.50
2017,04,06,08,48,14.50
2017,04,06,08,49,17.70
2017,04,06,08,50,20.90
2017,04,06,08,51,19.30
2017,04,06,08,52,16.10
2017,04,06,08,53,17.70
2017,04,06,08,54,16.10
2017,04,06,08,55,16.10
2017,04,06,08,56,19.30
2017,04,06,08,57,22.50
2017,04,06,08,58,20.90
2017,04,06,08,59,20.90
2017,04,06,09,00,25.70
2017,04,06,09,01,24.20
2017,04,06,09,02,22.50
2017,04,06,09,03,20.90
2017,04,06,09,04,29.00
2017,04,06,09,05,27.40
2017,04,06,09,06,24.20
2017,04,06,09,07,24.20
2017,04,06,09,08,25.70
2017,04,06,09,09,29.00
2017,04,06,09,10,27.40
2017,04,06,09,11,24.20
2017,04,06,09,12,25.70
2017,04,06,09,13,22.50
2017,04,06,09,14,20.90
2017,04,06,09,15,25.70
2017,04,06,09,16,32.20
2017,04,06,09,17,32.20
2017,04,06,09,18,25.70
2017,04,06,09,19,35.40
2017,04,06,09,20,24.20
2017,04,06,09,21,29.00
2017,04,06,09,22,37.00
2017,04,06,09,23,38.60
2017,04,06,09,24,30.60
2017,04,06,09,25,32.20
2017,04,06,09,26,22.50
2017,04,06,09,27,25.70
2017,04,06,09,28,33.80
2017,04,06,09,29,30.60
2017,04,06,09,30,35.40
2017,04,06,09,31,27.40
2017,04,06,09,32,24.20
2017,04,06,09,33,30.60
2017,04,06,09,34,37.00
2017,04,06,09,35,32.20
2017,04,06,09,36,29.00
2017,04,06,09,37,24.20
2017,04,06,09,38,25.70
2017,04,06,09,39,29.00
2017,04,06,09,40,24.20
2017,04,06,09,41,20.90
2017,04,06,09,42,27.40
2017,04,06,09,43,30.60
2017,04,06,09,44,20.90
2017,04,06,09,45,29.00
2017,04,06,09,46,32.20
2017,04,06,09,47,25.70
2017,04,06,09,48,27.40
2017,04,06,09,49,30.60
2017,04,06,09,50,29.00
2017,04,06,09,51,27.40
2017,04,06,09,52,32.20
2017,04,06,09,53,35.40
2017,04,06,09,54,35.40
2017,04,06,09,55,25.70
2017,04,06,09,56,24.20
2017,04,06,09,57,37.00
2017,04,06,09,58,32.20
2017,04,06,09,59,32.20
2017,04,06,10,00,24.20
2017,04,06,10,01,32.20
2017,04,06,10,02,32.20
2017,04,06,10,03,35.40
2017,04,06,10,04,32.20
2017,04,06,10,05,35.40
2017,04,06,10,06,32.20
2017,04,06,10,07,24.20
2017,04,06,10,08,20.90
2017,04,06,10,09,25.70
2017,04,06,10,10,27.40
2017,04,06,10,11,27.40
2017,04,06,10,12,22.50
2017,04,06,10,13,29.00
2017,04,06,10,14,29.00
2017,04,06,10,15,37.00
2017,04,06,10,16,24.20
2017,04,06,10,17,24.20
2017,04,06,10,18,32.20
2017,04,06,10,19,33.80
2017,04,06,10,20,30.60
2017,04,06,10,21,20.90
2017,04,06,10,22,16.10
2017,04,06,10,23,19.30
2017,04,06,10,24,19.30
2017,04,06,10,25,25.70
2017,04,06,10,26,20.90
2017,04,06,10,27,25.70
2017,04,06,10,28,20.90
2017,04,06,10,29,27.40
2017,04,06,10,30,24.20
2017,04,06,10,31,24.20
2017,04,06,10,32,22.50
2017,04,06,10,33,24.20
2017,04,06,10,34,22.50
2017,04,06,10,35,25.70
2017,04,06,10,36,24.20
2017,04,06,10,37,25.70
2017,04,06,10,38,22.50
2017,04,06,10,39,22.50
2017,04,06,10,40,24.20
2017,04,06,10,41,24.20
2017,04,06,10,42,24.20
2017,04,06,10,43,27.40
2017,04,06,10,44,29.00
2017,04,06,10,45,27.40
2017,04,06,10,46,29.00
2017,04,06,10,47,27.40
2017,04,06,10,48,30.60
2017,04,06,10,49,27.40
2017,04,06,10,50,24.20
2017,04,06,10,51,22.50
2017,04,06,10,52,29.00
2017,04,06,10,53,24.20
2017,04,06,10,54,22.50
2017,04,06,10,55,27.40
2017,04,06,10,56,22.50
2017,04,06,10,57,22.50
2017,04,06,10,58,17.70
2017,04,06,10,59,24.20
2017,04,06,11,00,25.70
2017,04,06,11,01,24.20
2017,04,06,11,02,16.10
2017,04,06,11,03,17.70
2017,04,06,11,04,22.50
2017,04,06,11,05,20.90
2017,04,06,11,06,19.30
2017,04,06,11,07,29.00
2017,04,06,11,08,22.50
2017,04,06,11,09,20.90
2017,04,06,11,10,22.50
2017,04,06,11,11,22.50
2017,04,06,11,12,19.30
2017,04,06,11,13,24.20
2017,04,06,11,14,25.70
2017,04,06,11,15,20.90
2017,04,06,11,16,19.30
2017,04,06,11,17,24.20
2017,04,06,11,18,20.90
2017,04,06,11,19,22.50
2017,04,06,11,20,20.90
2017,04,06,11,21,19.30
2017,04,06,11,22,19.30
2017,04,06,11,23,20.90
2017,04,06,11,24,22.50
2017,04,06,11,25,22.50
2017,04,06,11,26,19.30
2017,04,06,11,27,19.30
2017,04,06,11,28,22.50
2017,04,06,11,29,24.20
2017,04,06,11,30,22.50
2017,04,06,11,31,25.70
2017,04,06,11,32,16.10
2017,04,06,11,33,16.10
2017,04,06,11,34,16.10
2017,04,06,11,35,17.70
2017,04,06,11,36,20.90
2017,04,06,11,37,22.50
2017,04,06,11,38,19.30
2017,04,06,11,39,17.70
2017,04,06,11,40,20.90
2017,04,06,11,41,20.90
2017,04,06,11,42,24.20
2017,04,06,11,43,19.30
2017,04,06,11,44,22.50
2017,04,06,11,45,20.90
2017,04,06,11,46,19.30
2017,04,06,11,47,19.30
2017,04,06,11,48,22.50
2017,04,06,11,49,20.90
2017,04,06,11,50,24.20
2017,04,06,11,51,27.40
2017,04,06,11,52,25.70
2017,04,06,11,53,24.20
2017,04,06,11,54,22.50
2017,04,06,11,55,20.90
2017,04,06,11,56,24.20
2017,04,06,11,57,24.20
2017,04,06,11,58,22.50
2017,04,06,11,59,22.50
2017,04,06,12,00,22.50
2017,04,06,12,01,16.10
2017,04,06,12,02,17.70
2017,04,06,12,03,16.10
2017,04,06,12,04,19.30
2017,04,06,12,05,22.50
2017,04,06,12,06,19.30
2017,04,06,12,07,9.60
2017,04,06,12,08,12.90
2017,04,06,12,09,19.30
2017,04,06,12,10,25.70
2017,04,06,12,11,19.30
2017,04,06,12,12,20.90
2017,04,06,12,13,35.40
2017,04,06,12,14,20.90
2017,04,06,12,15,22.50
2017,04,06,12,16,20.90
2017,04,06,12,17,19.30
2017,04,06,12,18,17.70
2017,04,06,12,19,17.70
2017,04,06,12,20,17.70
2017,04,06,12,21,19.30
2017,04,06,12,22,19.30
2017,04,06,12,23,19.30
2017,04,06,12,24,29.00
2017,04,06,12,25,27.40
2017,04,06,12,26,25.70
2017,04,06,12,27,27.40
2017,04,06,12,28,22.50
2017,04,06,12,29,29.00
2017,04,06,12,30,27.40
2017,04,06,12,31,20.90
2017,04,06,12,32,25.70
2017,04,06,12,33,25.70
2017,04,06,12,34,20.90
2017,04,06,12,35,27.40
2017,04,06,12,36,24.20
2017,04,06,12,37,20.90
2017,04,06,12,38,19.30
2017,04,06,12,39,22.50
2017,04,06,12,40,17.70
2017,04,06,12,41,24.20
2017,04,06,12,42,25.70
2017,04,06,12,43,17.70
2017,04,06,12,44,20.90
2017,04,06,12,45,19.30
2017,04,06,12,46,16.10
2017,04,06,12,47,20.90
2017,04,06,12,48,20.90
2017,04,06,12,49,20.90
2017,04,06,12,50,19.30
2017,04,06,12,51,25.70
2017,04,06,12,52,24.20
2017,04,06,12,53,11.30
2017,04,06,12,54,25.70
2017,04,06,12,55,20.90
2017,04,06,12,56,19.30
2017,04,06,12,57,29.00
2017,04,06,12,58,24.20
2017,04,06,12,59,25.70
2017,04,06,13,00,19.30
2017,04,06,13,01,22.50
2017,04,06,13,02,22.50
2017,04,06,13,03,19.30
2017,04,06,13,04,20.90
2017,04,06,13,05,27.40
2017,04,06,13,06,25.70
2017,04,06,13,07,19.30
2017,04,06,13,08,16.10
2017,04,06,13,09,16.10
2017,04,06,13,10,29.00
2017,04,06,13,11,20.90
2017,04,06,13,12,22.50
2017,04,06,13,13,19.30
2017,04,06,13,14,20.90
2017,04,06,13,15,17.70
2017,04,06,13,16,9.60
2017,04,06,13,17,9.60
2017,04,06,13,18,9.60
2017,04,06,13,19,22.50
2017,04,06,13,20,25.70
2017,04,06,13,21,32.20
2017,04,06,13,22,25.70
2017,04,06,13,23,25.70
2017,04,06,13,24,22.50
2017,04,06,13,25,19.30
2017,04,06,13,26,19.30
2017,04,06,13,27,19.30
2017,04,06,13,28,20.90
2017,04,06,13,29,30.60
2017,04,06,13,30,20.90
2017,04,06,13,31,20.90
2017,04,06,13,32,24.20
2017,04,06,13,33,20.90
2017,04,06,13,34,20.90
2017,04,06,13,35,19.30
2017,04,06,13,36,20.90
2017,04,06,13,37,25.70
2017,04,06,13,38,14.50
2017,04,06,13,39,22.50
2017,04,06,13,40,27.40
2017,04,06,13,41,20.90
2017,04,06,13,42,16.10
2017,04,06,13,43,20.90
2017,04,06,13,44,17.70
2017,04,06,13,45,19.30
2017,04,06,13,46,22.50
2017,04,06,13,47,29.00
2017,04,06,13,48,29.00
2017,04,06,13,49,24.20
2017,04,06,13,50,20.90
2017,04,06,13,51,24.20
2017,04,06,13,52,22.50
2017,04,06,13,53,24.20
2017,04,06,13,54,25.70
2017,04,06,13,55,25.70
2017,04,06,13,56,22.50
2017,04,06,13,57,20.90
2017,04,06,13,58,20.90
2017,04,06,13,59,20.90
2017,04,06,14,00,22.50
2017,04,06,14,01,25.70
2017,04,06,14,02,20.90
2017,04,06,14,03,19.30
2017,04,06,14,04,19.30
2017,04,06,14,05,25.70
2017,04,06,14,06,20.90
2017,04,06,14,07,30.60
2017,04,06,14,08,27.40
2017,04,06,14,09,24.20
2017,04,06,14,10,22.50
2017,04,06,14,11,29.00
2017,04,06,14,12,19.30
2017,04,06,14,13,20.90
2017,04,06,14,14,17.70
2017,04,06,14,15,19.30
2017,04,06,14,16,20.90
2017,04,06,14,17,16.10
2017,04,06,14,18,17.70
2017,04,06,14,19,24.20
2017,04,06,14,20,19.30
2017,04,06,14,21,14.50
2017,04,06,14,22,27.40
2017,04,06,14,23,20.90
2017,04,06,14,24,17.70
2017,04,06,14,25,22.50
2017,04,06,14,26,22.50
2017,04,06,14,27,25.70
2017,04,06,14,28,22.50
2017,04,06,14,29,29.00
2017,04,06,14,30,19.30
2017,04,06,14,31,25.70
2017,04,06,14,32,20.90
2017,04,06,14,33,24.20
2017,04,06,14,34,19.30
2017,04,06,14,35,17.70
2017,04,06,14,36,16.10
2017,04,06,14,37,16.10
2017,04,06,14,38,19.30
2017,04,06,14,39,19.30
2017,04,06,14,40,16.10
2017,04,06,14,41,16.10
2017,04,06,14,42,17.70
2017,04,06,14,43,17.70
2017,04,06,14,44,11.30
2017,04,06,14,45,19.30
2017,04,06,14,46,24.20
2017,04,06,14,47,24.20
2017,04,06,14,48,19.30
2017,04,06,14,49,19.30
2017,04,06,14,50,20.90
2017,04,06,14,51,19.30
2017,04,06,14,52,20.90
2017,04,06,14,53,19.30
2017,04,06,14,54,20.90
2017,04,06,14,55,9.60
2017,04,06,14,56,14.50
2017,04,06,14,57,6.40
2017,04,06,14,58,17.70
2017,04,06,14,59,9.60
2017,04,06,15,00,14.50
2017,04,06,15,01,9.60
2017,04,06,15,02,8.10
2017,04,06,15,03,8.10
2017,04,06,15,04,8.10
2017,04,06,15,05,11.30
2017,04,06,15,06,11.30
2017,04,06,15,07,8.10
2017,04,06,15,08,22.50
2017,04,06,15,09,17.70
2017,04,06,15,10,16.10
2017,04,06,15,11,22.50
2017,04,06,15,12,14.50
2017,04,06,15,13,11.30
2017,04,06,15,14,12.90
2017,04,06,15,15,17.70
2017,04,06,15,16,14.50
2017,04,06,15,17,16.10
2017,04,06,15,18,16.10
2017,04,06,15,19,17.70
2017,04,06,15,20,16.10
2017,04,06,15,21,16.10
2017,04,06,15,22,11.30
2017,04,06,15,23,16.10
2017,04,06,15,24,14.50
2017,04,06,15,25,14.50
2017,04,06,15,26,19.30
2017,04,06,15,27,11.30
2017,04,06,15,28,11.30
2017,04,06,15,29,11.30
2017,04,06,15,30,9.60
2017,04,06,15,31,6.40
2017,04,06,15,32,4.80
2017,04,06,15,33,17.70
2017,04,06,15,34,17.70
2017,04,06,15,35,9.60
2017,04,06,15,36,6.40
2017,04,06,15,37,6.40
2017,04,06,15,38,11.30
2017,04,06,15,39,12.90
2017,04,06,15,40,9.60
2017,04,06,15,41,9.60
2017,04,06,15,42,16.10
2017,04,06,15,43,14.50
2017,04,06,15,44,14.50
2017,04,06,15,45,22.50
2017,04,06,15,46,11.30
2017,04,06,15,47,17.70
2017,04,06,15,48,16.10
2017,04,06,15,49,17.70
2017,04,06,15,50,17.70
2017,04,06,15,51,22.50
2017,04,06,15,52,22.50
2017,04,06,15,53,22.50
2017,04,06,15,54,19.30
2017,04,06,15,55,16.10
2017,04,06,15,56,19.30
2017,04,06,15,57,17.70
2017,04,06,15,58,17.70
2017,04,06,15,59,14.50
2017,04,06,16,00,14.50
2017,04,06,16,01,14.50
2017,04,06,16,02,14.50
2017,04,06,16,03,20.90
2017,04,06,16,04,19.30
2017,04,06,16,05,19.30
2017,04,06,16,06,17.70
2017,04,06,16,07,16.10
2017,04,06,16,08,20.90
2017,04,06,16,09,19.30
2017,04,06,16,10,16.10
2017,04,06,16,11,22.50
2017,04,06,16,12,19.30
2017,04,06,16,13,16.10
2017,04,06,16,14,11.30
2017,04,06,16,15,16.10
2017,04,06,16,16,16.10
2017,04,06,16,17,16.10
2017,04,06,16,18,8.10
2017,04,06,16,19,6.40
2017,04,06,16,20,11.30
2017,04,06,16,21,16.10
2017,04,06,16,22,14.50
2017,04,06,16,23,9.60
2017,04,06,16,24,14.50
2017,04,06,16,25,12.90
2017,04,06,16,26,12.90
2017,04,06,16,27,8.10
2017,04,06,16,28,8.10
2017,04,06,16,29,16.10
2017,04,06,16,30,16.10
2017,04,06,16,31,16.10
2017,04,06,16,32,16.10
2017,04,06,16,33,16.10
2017,04,06,16,34,14.50
2017,04,06,16,35,16.10
2017,04,06,16,36,16.10
2017,04,06,16,37,19.30
2017,04,06,16,38,19.30
2017,04,06,16,39,14.50
2017,04,06,16,40,9.60
2017,04,06,16,41,9.60
2017,04,06,16,42,11.30
2017,04,06,16,43,16.10
2017,04,06,16,44,14.50
2017,04,06,16,45,11.30
2017,04,06,16,46,8.10
2017,04,06,16,47,8.10
2017,04,06,16,48,11.30
2017,04,06,16,49,9.60
2017,04,06,16,50,8.10
2017,04,06,16,51,9.60
2017,04,06,16,52,8.10
2017,04,06,16,53,16.10
2017,04,06,16,54,14.50
2017,04,06,16,55,11.30
2017,04,06,16,56,9.60
2017,04,06,16,57,9.60
2017,04,06,16,58,8.10
2017,04,06,16,59,11.30
2017,04,06,17,00,11.30
2017,04,06,17,01,14.50
2017,04,06,17,02,11.30
2017,04,06,17,03,9.60
2017,04,06,17,04,9.60
2017,04,06,17,05,9.60
2017,04,06,17,06,8.10
2017,04,06,17,07,11.30
2017,04,06,17,08,11.30
2017,04,06,17,09,9.60
2017,04,06,17,10,9.60
2017,04,06,17,11,8.10
2017,04,06,17,12,12.90
2017,04,06,17,13,14.50
2017,04,06,17,14,12.90
2017,04,06,17,15,17.70
2017,04,06,17,16,19.30
2017,04,06,17,17,14.50
2017,04,06,17,18,16.10
2017,04,06,17,19,17.70
2017,04,06,17,20,19.30
2017,04,06,17,21,16.10
2017,04,06,17,22,20.90
2017,04,06,17,23,20.90
2017,04,06,17,24,16.10
2017,04,06,17,25,17.70
2017,04,06,17,26,14.50
2017,04,06,17,27,17.70
2017,04,06,17,28,16.10
2017,04,06,17,29,14.50